Date,TemperatureHighF,TemperatureAvgF,TemperatureLowF,DewpointHighF,DewpointAvgF,DewpointLowF,HumidityHigh,HumidityAvg,HumidityLow,PressureMaxIn,PressureMinIn,WindSpeedMaxMPH,WindSpeedAvgMPH,GustSpeedMaxMPH,PrecipitationSumIn
2013-1-1,73,64,56,56,53,51,82,68,51,30.04,29.88,7,1,12,0.00
2013-1-2,73,64,56,62,56,51,88,76,63,29.97,29.86,11,3,16,0.00
2013-1-3,74,65,59,64,59,56,89,80,69,30.04,29.92,10,2,16,0.00
2013-1-4,76,64,56,60,56,52,89,75,53,30.11,29.99,13,3,22,0.00
2013-1-5,75,63,54,63,54,49,87,74,54,30.14,30.01,9,2,15,0.00
2013-1-6,78,66,54,67,57,46,80,72,57,30.05,29.89,11,2,14,0.00
2013-1-7,78,66,61,66,54,-100,87,71,44,29.95,29.80,4,-20,11,0.00
2013-1-8,70,63,55,54,47,39,69,57,32,30.03,29.83,15,3,22,0.00
2013-1-9,74,64,55,59,50,43,88,63,40,30.09,29.95,16,3,24,0.00
2013-1-10,75,64,55,61,52,43,89,65,39,30.05,29.95,12,3,18,0.00
2013-1-11,77,67,59,62,53,39,82,63,41,30.02,29.91,12,3,17,0.00
2013-1-12,70,63,58,56,52,41,87,68,49,30.06,29.94,13,2,18,0.00
2013-1-13,70,61,54,54,47,40,77,61,53,30.03,29.94,12,2,16,0.00
2013-1-14,69,60,53,54,49,47,82,68,50,30.08,30.00,11,2,17,0.00
2013-1-15,58,55,52,48,46,45,76,72,68,30.08,30.04,7,1,11,0.00
2013-1-19,76,70,63,63,56,-100,81,65,56,30.10,29.98,8,-17,11,0.00
2013-1-20,78,68,59,64,57,47,81,68,53,30.02,29.91,6,1,7,0.00
2013-1-21,76,68,60,63,58,52,84,72,55,30.00,29.91,8,2,12,0.00
2013-1-22,78,68,59,64,58,49,82,71,50,30.02,29.91,15,2,16,0.00
2013-1-23,78,69,61,63,57,46,83,67,57,30.09,30.00,10,2,15,0.00
2013-1-24,83,71,60,66,56,45,70,60,39,30.12,29.99,9,2,14,0.00
2013-1-25,80,72,63,68,56,43,82,59,38,30.02,29.92,9,1,13,0.00
2013-1-26,76,70,65,66,63,58,85,76,68,30.02,29.92,7,1,10,0.00
2013-1-27,76,67,65,68,55,-100,85,72,64,30.04,29.97,5,-42,8,0.00
2013-1-28,75,69,65,66,62,57,84,77,68,30.09,30.00,8,2,9,0.00
2013-1-29,73,65,58,60,55,48,88,72,49,30.14,30.02,16,2,25,0.00
2013-1-30,75,65,54,60,50,43,75,60,42,30.07,29.93,13,2,16,0.00
2013-1-31,76,66,56,61,51,39,72,60,47,30.01,29.92,7,1,14,0.00
2013-2-1,73,66,58,61,51,41,74,59,45,30.07,29.97,9,1,10,0.00
2013-2-2,78,68,59,67,54,39,85,61,36,30.03,29.95,10,2,15,0.00
2013-2-3,77,69,60,66,57,44,85,67,39,30.00,29.91,7,1,13,0.00
2013-2-4,78,66,63,62,49,-100,78,60,43,29.99,29.91,5,-41,10,0.00
2013-2-5,74,68,58,62,57,49,81,69,53,30.00,29.89,7,2,10,0.00
2013-2-6,75,68,63,64,58,54,76,69,55,30.00,29.91,7,1,10,0.00
2013-2-7,75,68,63,65,59,49,88,72,49,30.00,29.91,11,3,14,0.00
2013-2-8,76,68,59,65,61,56,90,81,62,30.00,29.89,5,1,6,0.00
2013-2-9,75,67,61,67,61,55,90,80,65,29.96,29.87,13,3,20,0.00
2013-2-10,67,64,62,61,57,55,89,80,74,30.04,29.94,5,1,8,0.02
2013-2-11,70,66,60,59,56,52,80,71,60,30.10,30.01,6,1,7,0.00
2013-2-12,71,64,57,56,52,47,75,65,52,30.10,30.00,15,2,19,0.00
2013-2-13,72,61,52,55,49,43,76,65,49,30.07,29.96,15,2,18,0.00
2013-2-14,73,62,49,61,50,40,76,65,48,30.03,29.91,12,3,19,0.00
2013-2-15,74,64,53,62,48,33,79,58,34,30.02,29.91,12,2,17,0.00
2013-2-16,76,67,56,63,51,33,78,59,31,30.00,29.91,9,2,13,0.00
2013-2-17,75,67,58,60,55,46,73,65,53,30.00,29.92,7,1,8,0.00
2013-2-18,75,69,64,67,56,-100,86,70,47,30.01,29.90,5,-10,7,0.00
2013-2-19,74,69,64,68,58,43,87,69,47,29.94,29.83,8,3,11,0.00
2013-2-20,74,68,63,67,52,30,87,60,24,29.93,29.84,11,2,14,0.00
2013-2-21,71,64,58,58,54,49,76,70,59,30.00,29.90,15,3,16,0.00
2013-2-22,71,64,56,58,54,48,85,70,61,30.03,29.92,13,3,19,0.00
2013-2-23,73,64,55,57,53,47,77,67,54,29.99,29.89,8,2,14,0.00
2013-2-24,72,65,59,61,57,53,84,74,67,29.97,29.87,5,1,7,0.00
2013-2-25,75,65,56,59,47,27,74,55,27,30.00,29.84,14,2,23,0.00
2013-2-26,75,64,53,58,43,24,71,48,30,29.96,29.85,10,2,15,0.00
2013-2-27,73,64,53,59,49,38,73,61,44,30.01,29.93,15,2,17,0.00
2013-2-28,87,66,56,61,47,21,81,53,9,29.99,29.91,13,3,21,0.00
2013-3-1,86,74,60,55,34,16,46,25,13,29.94,29.84,10,3,19,0.00
2013-3-5,-200,0,200,-100,-100,-100,0,0,100,30.02,30.01,0,-999,0,0.00
2013-3-6,74,5,73,63,-89,-100,72,4,64,30.02,29.93,3,-932,5,0.00
2013-3-7,-200,0,200,-100,-100,-100,0,0,100,30.00,29.91,0,-999,0,0.00
2013-4-12,79,72,64,63,57,41,69,59,40,29.83,29.76,10,2,14,0.00
2013-4-13,74,69,63,63,57,40,82,67,40,29.88,29.78,10,2,13,0.00
2013-4-14,78,68,60,64,57,47,79,68,54,29.91,29.83,9,2,10,0.00
2013-4-15,80,70,61,64,57,49,74,64,49,29.91,29.82,8,2,11,0.00
2013-4-16,76,68,60,64,57,47,82,67,53,29.91,29.84,7,2,10,0.00
2013-4-17,75,69,60,64,60,53,84,74,63,29.95,29.88,11,4,14,0.00
2013-4-18,76,68,60,63,60,56,88,76,62,29.95,29.88,12,4,15,0.00
2013-4-19,74,67,57,61,52,36,83,59,39,29.95,29.84,12,4,15,0.00
2013-4-20,78,69,57,65,56,38,83,64,42,29.97,29.86,8,3,11,0.00
2013-4-21,78,70,62,66,58,43,82,67,41,30.04,29.92,7,2,10,0.00
2013-4-22,80,72,65,67,57,42,74,61,36,29.98,29.85,7,1,11,0.00
2013-4-23,78,72,68,68,58,37,80,61,30,29.90,29.83,6,1,7,0.00
2013-4-24,79,71,63,68,61,47,89,72,49,29.94,29.85,8,2,11,0.00
2013-4-25,77,73,63,68,62,23,79,68,20,29.98,29.91,10,3,11,0.00
2013-4-26,80,73,65,69,61,40,89,67,39,30.05,29.95,13,3,16,0.00
2013-4-27,78,73,67,68,63,51,87,72,51,30.00,29.88,12,3,12,0.00
2013-4-28,81,72,64,68,61,44,88,69,40,29.89,29.78,8,2,11,0.00
2013-4-29,79,74,68,72,58,32,80,61,23,29.82,29.73,7,2,9,0.00
2013-4-30,79,74,68,71,60,33,88,65,26,29.86,29.75,7,2,10,0.00
2013-5-1,74,70,66,68,65,53,90,82,62,29.93,29.83,9,3,13,0.00
2013-5-2,82,75,68,64,54,34,76,48,28,29.91,29.82,10,2,11,0.00
2013-5-3,78,73,68,70,58,36,80,63,30,29.88,29.80,8,2,9,0.00
2013-5-4,77,70,64,67,61,50,86,75,53,29.91,29.81,19,6,21,0.00
2013-5-5,76,70,62,65,59,43,86,71,48,29.99,29.86,10,3,18,0.00
2013-5-6,79,75,72,69,61,44,82,63,35,29.99,29.92,5,2,8,0.00
2013-5-7,82,75,70,70,60,46,79,61,39,30.01,29.94,6,2,9,0.00
2013-5-8,84,76,71,71,63,49,81,65,43,30.02,29.92,12,2,14,0.00
2013-5-9,81,76,70,72,65,53,84,70,46,30.02,29.92,10,3,14,0.00
2013-5-10,82,75,70,72,67,56,85,76,56,30.00,29.89,8,3,10,0.00
2013-5-11,81,74,63,69,64,48,86,71,54,29.97,29.87,13,4,16,0.00
2013-5-12,80,74,66,68,63,56,85,68,50,29.91,29.79,7,3,11,0.00
2013-5-13,83,75,68,69,58,31,82,58,25,29.93,29.84,9,2,11,0.00
2013-5-14,80,75,69,71,60,35,84,64,27,29.98,29.88,7,2,8,0.00
2013-5-15,84,77,71,70,53,34,76,46,22,30.00,29.90,9,3,9,0.00
2013-5-16,83,79,74,67,56,36,75,49,21,29.94,29.85,7,2,9,0.00
2013-5-17,85,77,72,70,58,39,80,55,27,29.94,29.83,7,2,10,0.00
2013-5-18,86,80,76,71,55,35,74,45,22,29.94,29.85,5,2,8,0.00
2013-5-19,80,76,70,69,58,43,83,56,32,29.89,29.80,6,2,8,0.00
2013-5-20,83,77,72,71,56,35,71,49,26,29.89,29.80,4,1,6,0.00
2013-5-21,81,76,70,75,59,31,83,61,23,29.86,29.78,8,2,10,0.00
2013-5-22,84,78,70,71,66,58,85,68,55,29.83,29.75,4,2,6,0.00
2013-5-23,80,74,66,71,61,35,84,65,26,29.89,29.76,9,2,10,0.00
2013-5-24,79,73,64,68,58,35,81,62,25,29.92,29.81,6,2,8,0.00
2013-5-25,79,74,65,70,62,28,87,69,20,29.95,29.84,7,2,9,0.00
2013-5-26,80,75,67,72,66,36,87,74,28,29.96,29.83,8,2,9,0.00
2013-5-27,86,78,70,75,60,41,78,55,28,29.87,29.75,7,2,9,0.00
2013-5-28,81,77,72,73,60,35,86,60,23,29.78,29.70,11,3,14,0.00
2013-5-29,83,75,67,72,67,60,91,78,60,29.79,29.71,7,2,10,0.00
2013-5-30,81,74,66,68,63,52,85,68,46,29.87,29.77,8,2,9,0.00
2013-5-31,81,75,69,71,64,51,85,70,47,29.84,29.75,11,3,14,0.00
2013-6-1,83,76,70,74,67,54,86,72,58,29.79,29.71,7,2,8,0.00
2013-6-2,82,77,69,73,67,49,89,72,37,29.82,29.71,11,3,13,0.00
2013-6-3,81,77,73,73,70,47,91,79,37,29.83,29.75,8,3,11,0.00
2013-6-4,83,77,72,74,67,53,87,72,50,29.85,29.76,10,3,14,0.00
2013-6-5,82,78,74,73,66,36,84,69,22,29.83,29.72,10,3,14,0.00
2013-6-6,85,77,71,70,65,48,86,66,38,29.81,29.72,6,1,8,0.00
2013-6-7,80,74,67,73,67,58,90,79,65,29.82,29.71,9,2,11,0.00
2013-6-8,74,71,68,69,65,63,92,83,70,29.90,29.77,11,4,17,0.00
2013-6-9,77,72,66,71,66,61,89,82,73,29.89,29.78,8,3,10,0.00
2013-6-10,80,74,67,71,68,63,89,82,70,29.89,29.75,6,2,7,0.00
2013-6-11,80,74,69,72,69,64,90,82,70,29.91,29.80,10,2,15,0.00
2013-6-12,81,76,69,71,68,63,88,78,65,29.94,29.85,11,3,14,0.00
2013-6-13,83,77,71,73,68,60,83,73,50,29.94,29.83,12,3,18,0.00
2013-6-14,84,80,76,74,69,61,86,71,55,29.90,29.77,7,2,10,0.00
2013-6-15,88,81,74,77,73,66,86,77,63,29.88,29.76,6,2,8,0.00
2013-6-16,87,80,76,76,72,62,88,75,57,29.92,29.78,11,3,14,0.00
2013-6-17,86,81,76,78,73,65,87,78,66,29.88,29.76,10,2,13,0.00
2013-6-18,89,82,77,75,68,56,81,63,46,29.83,29.71,7,2,10,0.00
2013-6-19,83,80,76,76,71,57,85,76,45,29.80,29.70,8,2,10,0.00
2013-6-20,81,77,75,74,71,68,89,82,72,29.85,29.72,11,3,14,0.00
2013-6-21,81,75,72,72,70,65,90,82,70,29.86,29.77,7,2,10,0.00
2013-6-22,78,74,71,71,69,66,90,83,79,29.86,29.75,13,4,15,0.00
2013-6-23,76,73,69,70,68,64,88,83,79,29.84,29.74,11,4,14,0.00
2013-6-24,78,75,71,69,65,57,83,71,55,29.88,29.77,9,4,13,0.00
2013-6-25,84,78,72,74,71,66,86,78,71,29.96,29.84,8,2,11,0.00
2013-6-26,84,77,73,76,73,69,90,85,76,30.01,29.91,5,1,6,0.00
2013-6-27,82,77,73,76,73,70,93,87,78,30.01,29.89,9,2,11,0.00
2013-6-28,87,81,75,78,74,70,90,80,66,29.94,29.78,8,2,10,0.00
2013-6-29,85,82,79,79,76,68,92,81,58,29.84,29.73,11,2,13,0.00
2013-6-30,84,78,75,76,72,70,87,82,75,29.85,29.74,12,4,18,0.00
2013-7-1,86,78,74,73,70,64,87,77,48,29.86,29.75,7,2,9,0.00
2013-7-2,83,77,73,76,73,69,90,85,77,29.88,29.79,14,3,18,0.00
2013-7-3,86,81,76,78,73,68,86,78,72,29.87,29.75,8,2,10,0.00
2013-7-4,82,79,76,75,72,69,89,79,69,29.84,29.75,15,4,21,0.00
2013-7-5,81,78,74,73,71,68,87,79,70,29.84,29.69,11,3,14,0.00
2013-7-6,83,78,73,77,72,66,89,79,67,29.76,29.65,7,2,10,0.00
2013-7-7,84,80,76,75,73,66,89,81,70,29.85,29.69,8,2,11,0.00
2013-7-8,81,78,75,75,74,72,92,87,80,29.99,29.82,13,4,16,0.08
2013-7-9,86,79,73,77,74,71,93,87,75,30.03,29.93,5,1,7,0.00
2013-7-10,85,79,76,77,74,72,90,84,75,29.99,29.88,9,3,13,0.00
2013-7-11,84,78,72,77,72,67,90,82,71,29.94,29.80,7,1,9,0.00
2013-7-12,85,81,76,78,75,71,90,82,69,29.90,29.80,8,2,11,0.00
2013-7-13,85,81,75,77,74,67,89,81,73,29.90,29.81,14,4,17,0.00
2013-7-14,85,81,76,77,74,71,92,81,69,29.88,29.78,10,2,11,0.00
2013-7-15,88,82,77,78,73,66,88,76,63,29.84,29.73,11,3,14,0.00
2013-7-16,83,80,76,77,75,72,90,84,76,29.88,29.78,10,2,13,0.00
2013-7-17,86,80,76,78,75,73,92,85,72,29.93,29.86,11,3,18,0.00
2013-7-18,84,80,77,78,75,69,89,83,69,29.93,29.85,11,4,16,0.04
2013-7-19,81,78,75,75,72,71,86,82,76,29.91,29.81,15,5,20,0.04
2013-7-20,80,76,73,71,68,58,86,75,53,29.88,29.76,10,4,16,0.00
2013-7-21,80,77,71,73,67,54,84,73,47,29.90,29.79,13,5,16,0.00
2013-7-22,84,79,75,76,73,69,85,80,72,29.94,29.85,9,3,12,0.00
2013-7-23,89,81,75,78,74,71,88,79,68,29.95,29.85,9,2,12,0.00
2013-7-24,87,82,79,79,74,68,86,76,67,29.91,29.81,6,1,7,0.00
2013-7-25,88,84,79,81,76,68,85,77,68,29.98,29.86,9,3,13,0.00
2013-7-26,87,83,78,77,76,73,87,78,66,30.02,29.87,14,4,18,0.00
2013-7-27,91,85,78,81,75,65,86,73,55,29.95,29.79,5,2,7,0.00
2013-7-28,88,84,81,79,71,62,87,66,48,29.91,29.80,8,2,11,0.00
2013-7-29,88,83,79,81,75,68,86,78,68,29.98,29.84,10,2,14,0.00
2013-7-30,87,83,79,80,75,67,86,75,59,29.99,29.91,13,3,14,0.00
2013-7-31,88,85,81,79,72,63,84,68,48,29.97,29.85,9,3,11,0.00
2013-8-1,88,83,80,79,76,74,86,77,67,29.96,29.86,11,4,14,0.00
2013-8-2,85,83,79,78,75,71,85,78,67,29.92,29.83,13,4,19,0.00
2013-8-3,89,84,79,80,74,65,79,72,57,29.91,29.80,5,1,6,0.00
2013-8-4,90,83,79,78,74,62,88,76,48,29.97,29.82,11,3,21,0.01
2013-8-5,86,82,77,78,75,72,92,80,67,29.97,29.86,8,3,11,0.01
2013-8-6,89,83,77,79,74,68,84,75,65,29.96,29.86,9,2,10,0.00
2013-8-7,92,85,80,81,74,65,80,69,58,29.93,29.83,10,3,13,0.00
2013-8-8,92,86,80,80,73,63,82,66,49,29.87,29.77,6,2,8,0.00
2013-8-9,90,84,81,79,72,52,83,69,34,29.89,29.78,10,3,14,0.00
2013-8-10,90,84,80,78,74,69,81,74,63,29.89,29.82,11,3,13,0.00
2013-8-11,92,85,80,80,74,65,76,68,57,29.85,29.77,12,3,16,0.00
2013-8-12,88,83,78,78,76,73,90,78,67,29.92,29.81,6,2,13,0.08
2013-8-13,91,84,79,79,77,75,89,78,65,29.91,29.80,8,2,11,0.01
2013-8-14,90,84,78,80,75,70,84,74,63,29.86,29.77,7,2,9,0.00
2013-8-15,93,86,81,82,75,67,78,69,60,29.89,29.78,9,2,11,0.00
2013-8-16,90,85,82,80,75,67,83,73,56,29.90,29.80,9,3,12,0.00
2013-8-17,92,86,81,80,75,66,85,72,55,29.86,29.75,8,2,10,0.00
2013-8-18,88,84,80,79,77,73,88,80,71,29.91,29.79,10,4,13,0.00
2013-8-19,90,83,79,80,76,71,84,77,66,29.85,29.73,8,2,12,0.00
2013-8-20,90,84,79,82,77,69,84,79,65,29.83,29.74,9,3,12,0.00
2013-8-21,92,84,78,81,77,70,90,80,69,29.92,29.80,11,2,13,0.00
2013-8-22,87,83,79,79,77,73,89,81,73,29.92,29.77,8,2,10,0.00
2013-8-23,83,81,78,78,77,75,91,86,81,29.84,29.74,17,6,26,0.62
2013-8-24,89,83,79,80,78,76,92,84,73,29.86,29.76,10,4,18,0.71
2013-8-25,87,82,80,80,78,76,91,86,77,29.90,29.82,10,5,14,0.04
2013-8-26,85,81,76,80,77,74,91,86,79,29.87,29.74,9,2,10,0.00
2013-8-27,88,82,78,81,78,76,93,87,78,29.81,29.72,5,1,7,0.00
2013-8-28,87,80,77,78,76,74,93,88,71,29.89,29.75,30,4,31,0.08
2013-8-29,82,78,76,77,76,74,95,91,83,29.95,29.85,14,4,17,0.48
2013-8-30,85,80,75,79,76,73,94,88,78,29.96,29.88,9,2,15,0.00
2013-8-31,87,82,77,79,76,74,91,84,76,29.94,29.83,8,2,8,0.00
2013-9-1,92,83,78,81,77,74,87,81,69,29.89,29.78,5,1,7,0.00
2013-9-2,90,84,79,81,77,72,88,79,70,29.86,29.75,8,3,11,0.00
2013-9-3,90,85,80,81,77,72,87,77,71,29.88,29.74,10,3,13,0.00
2013-9-4,89,83,76,80,77,70,87,80,66,29.86,29.77,12,3,17,0.01
2013-9-5,92,84,79,80,78,76,92,81,66,29.86,29.78,7,1,9,0.00
2013-9-6,83,80,76,79,77,73,96,90,83,29.86,29.77,23,5,31,0.05
2013-9-7,91,82,77,81,77,75,93,84,71,29.86,29.76,8,3,9,0.05
2013-9-8,91,82,76,79,76,73,93,82,66,29.82,29.69,8,3,13,0.00
2013-9-9,87,82,76,78,76,74,93,83,72,29.79,29.70,14,4,17,0.00
2013-9-10,87,81,74,78,76,72,93,82,70,29.85,29.76,13,4,16,0.00
2013-9-11,89,83,77,79,76,73,89,80,70,29.85,29.75,9,2,13,0.00
2013-9-12,93,84,76,79,76,71,92,78,60,29.79,29.65,10,3,16,0.00
2013-9-13,94,85,78,78,74,66,87,71,52,29.71,29.54,9,3,12,0.00
2013-9-14,94,86,80,80,75,67,85,70,49,29.62,29.54,7,2,9,0.00
2013-9-15,95,87,80,80,76,70,82,69,55,29.65,29.56,5,1,8,0.00
2013-9-16,94,88,82,83,77,72,81,71,57,29.69,29.59,7,1,8,0.00
2013-9-17,88,84,81,80,77,75,87,79,70,29.73,29.63,10,2,15,0.00
2013-9-18,85,80,77,79,77,74,94,89,80,29.75,29.66,12,3,15,1.32
2013-9-19,92,86,80,79,78,76,89,77,66,29.76,29.67,7,2,9,0.00
2013-9-20,90,82,75,80,76,73,92,81,70,29.80,29.73,8,2,10,0.00
2013-9-21,88,82,76,78,76,73,92,81,69,29.80,29.69,6,2,8,0.00
2013-9-22,89,83,76,79,76,73,92,80,69,29.74,29.66,5,1,7,0.00
2013-9-23,89,83,78,80,77,75,90,83,72,29.84,29.70,11,4,14,0.00
2013-9-24,88,82,78,80,76,-100,89,83,76,29.88,29.77,11,-7,14,0.00
2013-9-25,90,84,77,81,76,73,93,78,63,29.82,29.71,8,2,9,0.00
2013-9-26,90,85,80,82,76,71,81,74,64,29.82,29.70,9,3,11,0.00
2013-9-27,88,82,76,77,72,60,86,71,50,29.88,29.77,10,3,14,0.03
2013-9-28,88,81,75,75,72,69,84,73,63,29.96,29.85,11,4,14,0.00
2013-9-29,88,82,74,75,72,65,83,71,61,29.97,29.87,11,4,15,0.00
2013-9-30,88,82,75,76,74,70,87,77,66,29.92,29.83,6,1,8,0.00
2013-10-1,88,83,76,77,73,69,84,73,61,29.92,29.85,8,2,9,0.00
2013-10-2,93,84,77,78,74,65,80,72,61,29.90,29.81,5,2,8,0.00
2013-10-3,93,85,77,75,70,63,81,61,43,29.86,29.76,4,1,8,0.00
2013-10-4,90,81,72,77,71,63,86,71,53,29.89,29.79,10,4,12,0.00
2013-10-5,89,81,72,77,70,62,78,70,61,29.93,29.84,14,4,21,0.00
2013-10-6,90,81,74,76,72,67,85,74,62,29.91,29.84,10,3,14,0.00
2013-10-7,89,81,72,76,72,68,87,76,62,29.93,29.85,7,2,9,0.00
2013-10-8,90,82,74,75,72,67,85,71,56,29.91,29.81,6,1,9,0.00
2013-10-9,86,80,73,73,70,66,89,72,58,29.89,29.80,17,5,22,0.00
2013-10-10,90,81,72,78,68,58,82,66,54,29.89,29.82,11,2,14,0.00
2013-10-11,87,80,72,76,72,66,85,77,67,29.91,29.80,12,4,16,0.00
2013-10-12,87,81,74,77,74,70,88,79,69,29.89,29.82,13,4,18,0.00
2013-10-13,86,82,78,80,76,72,89,83,77,29.94,29.84,11,3,14,0.13
2013-10-14,86,82,77,81,78,74,93,86,78,29.91,29.82,17,6,21,0.45
2013-10-15,87,82,77,78,76,73,90,81,70,29.92,29.81,16,6,19,0.00
2013-10-16,87,81,75,78,75,73,94,84,72,29.98,29.89,9,3,13,0.00
2013-10-17,89,81,74,75,71,67,89,73,48,29.95,29.84,12,3,15,0.00
2013-10-18,87,79,73,74,70,65,86,74,57,29.92,29.82,8,2,9,0.00
2013-10-19,88,79,71,73,68,59,85,70,49,29.92,29.84,10,3,14,0.00
2013-10-20,86,78,69,73,68,64,86,72,56,29.90,29.80,10,3,14,0.00
2013-10-21,88,78,68,68,64,58,83,64,46,29.89,29.81,7,2,10,0.00
2013-10-22,86,78,71,69,62,50,77,58,43,29.89,29.79,7,2,9,0.00
2013-10-23,88,78,70,72,64,51,81,63,45,29.87,29.80,6,1,7,0.00
2013-10-24,89,78,70,70,61,46,71,56,40,29.92,29.84,7,2,9,0.00
2013-10-25,89,79,70,68,61,45,74,56,33,29.97,29.88,6,1,7,0.00
2013-10-26,88,77,67,73,69,63,89,76,58,29.96,29.86,10,3,12,0.00
2013-10-27,88,78,70,75,70,61,94,78,59,29.91,29.81,11,3,14,0.00
2013-10-28,84,78,72,75,69,58,86,74,56,29.92,29.82,9,2,10,0.00
2013-10-29,86,80,72,76,69,64,86,71,61,29.94,29.86,7,2,10,0.00
2013-10-30,89,80,73,70,62,50,73,56,40,29.92,29.83,8,2,14,0.00
2013-10-31,87,79,73,73,66,59,79,65,53,29.93,29.84,13,3,19,0.00
2013-11-1,90,80,72,75,70,61,87,73,56,29.93,29.81,11,3,17,0.00
2013-11-2,87,79,70,75,69,58,81,71,53,29.89,29.79,9,2,14,0.00
2013-11-3,78,76,71,72,68,58,92,78,52,29.86,29.65,12,2,18,0.81
2013-11-4,83,79,72,74,71,67,90,77,67,29.87,29.79,9,2,17,0.00
2013-11-5,81,75,67,72,67,62,90,78,69,29.95,29.85,11,3,13,0.00
2013-11-6,82,73,66,70,66,61,87,77,64,29.98,29.87,16,4,18,0.00
2013-11-7,84,76,69,74,68,63,88,76,64,30.00,29.90,7,2,13,0.00
2013-11-8,86,78,72,74,69,63,86,75,60,30.00,29.88,11,3,18,0.00
2013-11-9,90,78,67,74,64,54,92,66,37,29.99,29.88,10,4,24,0.00
2013-11-10,89,77,69,71,60,50,76,57,40,29.97,29.89,9,2,14,0.00
2013-11-11,86,75,65,70,60,51,72,60,43,29.97,29.86,8,3,14,0.00
2013-11-12,83,74,65,69,61,55,81,65,47,29.97,29.86,7,2,13,0.00
2013-11-13,84,76,66,74,65,56,83,71,50,29.93,29.82,10,3,14,0.00
2013-11-14,83,78,72,75,70,62,89,77,59,29.95,29.82,15,3,16,0.00
2013-11-15,85,78,73,77,73,69,90,83,76,29.91,29.80,8,2,10,0.00
2013-11-16,83,79,74,76,73,70,87,82,76,29.91,29.78,10,3,14,0.00
2013-11-17,84,79,74,76,74,72,91,84,74,29.99,29.87,10,3,16,0.00
2013-11-18,82,76,68,73,69,66,92,81,66,30.01,29.92,7,2,10,0.00
2013-11-19,83,74,67,72,68,64,91,81,69,29.95,29.83,7,2,10,0.00
2013-11-20,81,75,68,70,66,64,89,74,57,29.92,29.82,8,3,11,0.00
2013-11-21,81,74,67,65,63,59,77,67,49,29.96,29.87,13,5,17,0.00
2013-11-22,82,74,67,71,66,59,85,74,66,29.99,29.91,5,2,8,0.00
2013-11-23,81,75,68,71,66,61,86,75,67,30.00,29.92,10,4,13,0.00
2013-11-24,81,75,69,71,68,64,91,78,69,30.02,29.93,10,3,12,0.03
2013-11-25,79,73,67,67,60,55,87,66,57,30.06,29.96,11,4,21,0.00
2013-11-26,84,72,61,60,55,49,75,58,31,30.03,29.89,10,4,16,0.00
2013-11-27,82,71,59,68,62,54,87,74,60,29.95,29.84,8,3,12,0.00
2013-11-28,80,74,69,69,66,64,85,76,64,30.02,29.90,7,2,9,0.00
2013-11-29,80,74,68,69,66,64,86,75,64,30.06,29.94,11,3,15,0.00
2013-11-30,81,72,64,72,66,61,92,81,68,30.05,29.93,12,3,12,0.00
2013-12-1,81,75,66,72,68,63,89,79,71,30.08,29.96,10,2,15,0.00
2013-12-2,81,73,66,72,67,61,91,80,69,30.00,29.91,7,2,11,0.00
2013-12-3,84,76,70,72,68,62,88,77,63,29.92,29.83,5,1,8,0.00
2013-12-4,81,75,69,73,69,62,89,81,69,29.97,29.87,6,1,8,0.00
2013-12-5,81,74,67,73,68,62,89,82,72,30.01,29.91,7,2,10,0.00
2013-12-6,78,70,62,69,62,58,88,76,64,30.02,29.93,14,4,19,0.00
2013-12-7,76,69,61,62,59,57,86,71,59,30.10,30.00,6,2,9,0.00
2013-12-8,78,69,63,61,58,56,80,68,51,30.07,29.98,6,2,11,0.00
2013-12-9,77,68,61,63,58,54,82,71,58,30.06,29.98,16,4,19,0.00
2013-12-10,76,68,60,64,58,54,84,73,58,30.05,29.93,17,3,22,0.00
2013-12-11,78,68,59,68,62,56,91,79,70,30.12,30.00,11,4,21,0.00
2013-12-12,87,73,66,71,65,61,86,77,48,30.09,29.96,11,2,15,0.00
2013-12-13,80,71,64,69,61,47,90,71,42,30.05,29.93,8,2,16,0.00
2013-12-14,84,71,61,60,46,36,68,44,25,30.01,29.89,8,2,10,0.00
2013-12-15,80,68,57,66,54,37,81,63,39,29.99,29.89,10,3,13,0.00
2013-12-16,78,69,61,68,60,46,87,73,56,30.04,29.94,10,2,13,0.00
2013-12-17,79,70,59,69,62,54,92,77,59,30.06,29.92,10,3,14,0.00
2013-12-18,80,71,65,67,63,57,90,75,46,30.03,29.93,8,2,11,0.00
2013-12-19,78,73,67,71,65,51,85,76,54,29.98,29.84,7,3,8,0.00
2013-12-20,78,72,67,69,60,48,87,67,39,29.91,29.79,8,3,15,0.00
2013-12-21,72,66,58,58,54,49,78,65,53,30.00,29.89,12,3,16,0.00
2013-12-22,74,65,58,60,52,44,81,65,37,30.05,29.95,16,4,23,0.00
2013-12-23,81,68,56,66,56,49,83,68,44,30.06,29.95,11,3,18,0.00
2013-12-24,77,66,56,64,56,43,86,69,53,30.07,30.00,12,3,12,0.00
2013-12-25,76,68,57,65,60,52,89,76,62,30.07,29.94,10,3,12,0.00
2013-12-27,77,69,63,67,63,59,87,82,69,30.01,29.91,11,4,17,0.00
2013-12-28,74,67,58,65,60,51,90,79,65,30.03,29.89,16,4,23,0.00
2013-12-29,77,67,59,65,59,52,91,78,63,29.99,29.89,5,1,8,0.00
2013-12-30,78,68,58,63,53,42,82,61,38,30.04,29.93,12,3,19,0.00
2013-12-31,78,69,61,63,55,41,78,62,36,30.05,29.95,11,2,14,0.00
2014-1-1,78,69,59,65,55,40,79,62,30,30.04,29.89,15,4,21,0.00
2014-1-2,81,71,62,67,54,38,76,57,35,29.99,29.88,11,3,16,0.00